Home   Weather   Escondido   Past weeks

Flag for USA Past Weather in Escondido, California, USA — Yesterday and Last 2 Weeks

Now
53 °F

Fog.


Feels Like: 53 °F
Forecast: 54 / 64 °F
Wind: No wind

Location: Ramona Airport

Current Time: Dec 10, 2016 at 11:58:48 pm

Latest Report: Dec 10, 2016 at 10:53 pm


Visibility: 0 mi

Pressure: 30.14 "Hg

Humidity: 96%

Dew Point: 52 °F

Location of EscondidoLocation

Past Weather in Escondido — Graph

°F

Escondido Temperature Yesterday

Maximum temperature yesterday: 65 °F (at 2:53 pm)
Minimum temperature yesterday: 36 °F (at 6:53 am)
Average temperature yesterday: 48 °F

High & Low Weather Summary for the Past Weeks

 TemperatureHumidityPressure
High74 °F (Dec 4, 11:53 am)100% (Nov 28, 2:53 am)30.27 "Hg (Nov 28, 2:53 am)
Low28 °F (Dec 3, 3:53 am)13% (Dec 3, 10:53 am)29.84 "Hg (Nov 28, 5:53 pm)
Average49 °F72%30.03 "Hg
* Reported Nov 25 10:53 pm — Dec 10 10:00 pm, Escondido, Weather by CustomWeather, © 2016

Note: Actual official high and low records may vary slightly from our data, if they occured in-between our weather recording intervals... More about our weather records

Advertising

Escondido Weather History for the Previous 24 Hours

Scroll right to see more
 ConditionsComfort  
Time TempWeatherWind HumidityBarometerVisibility
10:00 pm
Sat, Dec 10
53 °FFog.No wind100%30.15 "Hg0 mi
8:53 pm53 °FFog.No wind96%30.13 "Hg1 mi
7:53 pm50 °FFog.3 mph93%30.13 "Hg0 mi
6:58 pm50 °FFog.3 mph93%30.12 "Hg2 mi
5:53 pm50 °FClear.5 mph93%30.10 "Hg10 mi
4:53 pm56 °FClear.8 mph84%30.09 "Hg10 mi
3:53 pm61 °FSunny.6 mph72%30.09 "Hg10 mi
2:53 pm65 °FSunny.7 mph63%30.09 "Hg10 mi
1:53 pm65 °FSunny.8 mph61%30.09 "Hg10 mi
12:53 pm64 °FSunny.9 mph65%30.11 "Hg10 mi
11:53 am63 °FSunny.No wind68%30.13 "Hg10 mi
10:53 am59 °FSunny.5 mph78%30.17 "Hg7 mi
10:00 am51 °FFog.3 mph96%30.20 "Hg4 mi
8:53 am48 °FFog.No wind96%30.20 "Hg0 mi
7:53 am46 °FDense fog.No wind96%30.18 "Hg0 mi
6:53 am46 °FDense fog.3 mph96%30.15 "Hg0 mi
5:53 am45 °FDense fog.5 mph97%30.16 "Hg0 mi
4:53 am47 °FDense fog.8 mph97%30.16 "Hg0 mi
3:53 am39 °FDense fog.No wind96%30.13 "Hg1 mi
2:53 am41 °FDense fog.No wind100%30.14 "Hg0 mi
1:53 am45 °FDense fog.5 mph97%30.16 "Hg0 mi
12:53 am46 °FDense fog.3 mph96%30.16 "Hg0 mi
11:53 pm
Fri, Dec 9
45 °FDense fog.No wind97%30.18 "Hg0 mi
Weather by CustomWeather, © 2016

See weather overviewHow to use our weather pages